Location: *
(38.4303°S, 157.0822°W)
Time: 13:33:28
(UTC+00:00)

USA 305 - Pass Details

Date: 21 May 2024
Orbit: 491 x 494 km, 54.4° (Epoch: 11 March)

Event Time Altitude Azimuth Distance (km) Brightness Sun altitude
Exits shadow 15:49:18 31° 193° (SSW) 907 3.7 -19.3°
Drops below altitude 10° 15:52:14 10° 150° (SSE) 1,718 5.6 -18.7°
Sets 15:54:36 0° 140° (SE) 2,594 6.7 -18.3°
